Location: Napier
(39.4830°S, 176.9170°E)
Time: 10:39:37
(UTC+13:00)

ARGOS - Pass Details

Date: 24 January 2019
Orbit: 821 x 834 km, 98.5° (Epoch: 16 February)

Event Time Altitude Azimuth Distance (km) Brightness Sun altitude
Rises 23:11:47 0° 175° (S) 3,392 7.1 -23.6°
Reaches altitude 10° 23:14:15 10° 181° (S) 2,452 6.4 -23.9°
Maximum altitude 23:19:19 42° 250° (WSW) 1,178 4.3 -24.4°
Enters shadow 23:23:31 14° 315° (NW) 2,130 5.1 -24.9°
